Year,Month,Day,Hour,Minute,Value (Times are PST for temperature in C)
2008,12,07,00,00,6.80
2008,12,07,00,01,6.80
2008,12,07,00,02,6.80
2008,12,07,00,03,6.80
2008,12,07,00,04,6.80
2008,12,07,00,05,6.80
2008,12,07,00,06,6.80
2008,12,07,00,07,6.80
2008,12,07,00,08,6.80
2008,12,07,00,09,6.80
2008,12,07,00,10,6.80
2008,12,07,00,11,6.80
2008,12,07,00,12,6.70
2008,12,07,00,13,6.70
2008,12,07,00,14,6.70
2008,12,07,00,15,6.70
2008,12,07,00,16,6.70
2008,12,07,00,17,6.70
2008,12,07,00,18,6.70
2008,12,07,00,19,6.70
2008,12,07,00,20,6.70
2008,12,07,00,21,6.70
2008,12,07,00,22,6.70
2008,12,07,00,23,6.80
2008,12,07,00,24,6.80
2008,12,07,00,25,6.80
2008,12,07,00,26,6.80
2008,12,07,00,27,6.80
2008,12,07,00,28,6.80
2008,12,07,00,29,6.80
2008,12,07,00,30,6.80
2008,12,07,00,31,6.80
2008,12,07,00,32,6.80
2008,12,07,00,33,6.80
2008,12,07,00,34,6.80
2008,12,07,00,35,6.70
2008,12,07,00,36,6.70
2008,12,07,00,37,6.70
2008,12,07,00,38,6.70
2008,12,07,00,39,6.60
2008,12,07,00,40,6.60
2008,12,07,00,41,6.60
2008,12,07,00,42,6.50
2008,12,07,00,43,6.50
2008,12,07,00,44,6.50
2008,12,07,00,45,6.40
2008,12,07,00,46,6.40
2008,12,07,00,47,6.40
2008,12,07,00,48,6.40
2008,12,07,00,49,6.40
2008,12,07,00,50,6.40
2008,12,07,00,51,6.30
2008,12,07,00,52,6.30
2008,12,07,00,53,6.30
2008,12,07,00,54,6.30
2008,12,07,00,55,6.30
2008,12,07,00,56,6.30
2008,12,07,00,57,6.30
2008,12,07,00,58,6.40
2008,12,07,00,59,6.40
2008,12,07,01,00,6.40
2008,12,07,01,01,6.40
2008,12,07,01,02,6.40
2008,12,07,01,03,6.40
2008,12,07,01,04,6.40
2008,12,07,01,05,6.40
2008,12,07,01,06,6.40
2008,12,07,01,07,6.40
2008,12,07,01,08,6.40
2008,12,07,01,09,6.40
2008,12,07,01,10,6.40
2008,12,07,01,11,6.40
2008,12,07,01,12,6.30
2008,12,07,01,13,6.30
2008,12,07,01,14,6.30
2008,12,07,01,15,6.30
2008,12,07,01,16,6.30
2008,12,07,01,17,6.30
2008,12,07,01,18,6.30
2008,12,07,01,19,6.30
2008,12,07,01,20,6.30
2008,12,07,01,21,6.30
2008,12,07,01,22,6.30
2008,12,07,01,23,6.30
2008,12,07,01,24,6.30
2008,12,07,01,25,6.30
2008,12,07,01,26,6.30
2008,12,07,01,27,6.30
2008,12,07,01,28,6.30
2008,12,07,01,29,6.30
2008,12,07,01,30,6.30
2008,12,07,01,31,6.30
2008,12,07,01,32,6.30
2008,12,07,01,33,6.30
2008,12,07,01,34,6.30
2008,12,07,01,35,6.30
2008,12,07,01,36,6.30
2008,12,07,01,37,6.30
2008,12,07,01,38,6.20
2008,12,07,01,39,6.20
2008,12,07,01,40,6.20
2008,12,07,01,41,6.20
2008,12,07,01,42,6.10
2008,12,07,01,43,6.10
2008,12,07,01,44,6.10
2008,12,07,01,45,6.10
2008,12,07,01,46,6.10
2008,12,07,01,47,6.10
2008,12,07,01,48,6.10
2008,12,07,01,49,6.10
2008,12,07,01,50,6.20
2008,12,07,01,51,6.20
2008,12,07,01,52,6.20
2008,12,07,01,53,6.20
2008,12,07,01,54,6.20
2008,12,07,01,55,6.20
2008,12,07,01,56,6.10
2008,12,07,01,57,6.10
2008,12,07,01,58,6.10
2008,12,07,01,59,6.10
2008,12,07,02,00,6.10
2008,12,07,02,01,6.10
2008,12,07,02,02,6.10
2008,12,07,02,03,6.10
2008,12,07,02,04,6.10
2008,12,07,02,05,6.10
2008,12,07,02,06,6.10
2008,12,07,02,07,6.10
2008,12,07,02,08,6.10
2008,12,07,02,09,6.10
2008,12,07,02,10,6.10
2008,12,07,02,11,6.10
2008,12,07,02,12,6.10
2008,12,07,02,13,6.10
2008,12,07,02,14,6.10
2008,12,07,02,15,6.10
2008,12,07,02,16,6.10
2008,12,07,02,17,6.10
2008,12,07,02,18,6.10
2008,12,07,02,19,6.10
2008,12,07,02,20,6.10
2008,12,07,02,21,6.10
2008,12,07,02,22,6.00
2008,12,07,02,23,6.00
2008,12,07,02,24,6.00
2008,12,07,02,25,5.90
2008,12,07,02,26,5.90
2008,12,07,02,27,5.90
2008,12,07,02,28,5.90
2008,12,07,02,29,5.90
2008,12,07,02,30,5.90
2008,12,07,02,31,5.90
2008,12,07,02,32,5.90
2008,12,07,02,33,5.90
2008,12,07,02,34,5.90
2008,12,07,02,35,5.90
2008,12,07,02,36,5.90
2008,12,07,02,37,5.90
2008,12,07,02,38,5.90
2008,12,07,02,39,5.90
2008,12,07,02,40,5.90
2008,12,07,02,41,5.90
2008,12,07,02,42,5.90
2008,12,07,02,43,5.90
2008,12,07,02,44,5.90
2008,12,07,02,45,5.90
2008,12,07,02,46,5.90
2008,12,07,02,47,5.90
2008,12,07,02,48,5.90
2008,12,07,02,49,5.90
2008,12,07,02,50,5.90
2008,12,07,02,51,6.00
2008,12,07,02,52,6.00
2008,12,07,02,53,6.10
2008,12,07,02,54,6.20
2008,12,07,02,55,6.30
2008,12,07,02,56,6.40
2008,12,07,02,57,6.50
2008,12,07,02,58,6.60
2008,12,07,02,59,6.60
2008,12,07,03,00,6.60
2008,12,07,03,01,6.60
2008,12,07,03,02,6.70
2008,12,07,03,03,6.70
2008,12,07,03,04,6.80
2008,12,07,03,05,6.80
2008,12,07,03,06,6.90
2008,12,07,03,07,7.00
2008,12,07,03,08,7.10
2008,12,07,03,09,7.20
2008,12,07,03,10,7.20
2008,12,07,03,11,7.20
2008,12,07,03,12,7.20
2008,12,07,03,13,7.30
2008,12,07,03,14,7.30
2008,12,07,03,15,7.30
2008,12,07,03,16,7.30
2008,12,07,03,17,7.40
2008,12,07,03,18,7.40
2008,12,07,03,19,7.40
2008,12,07,03,20,7.40
2008,12,07,03,21,7.40
2008,12,07,03,22,7.40
2008,12,07,03,23,7.50
2008,12,07,03,24,7.50
2008,12,07,03,25,7.60
2008,12,07,03,26,7.60
2008,12,07,03,27,7.60
2008,12,07,03,28,7.60
2008,12,07,03,29,7.60
2008,12,07,03,30,7.60
2008,12,07,03,31,7.60
2008,12,07,03,32,7.50
2008,12,07,03,33,7.60
2008,12,07,03,34,7.60
2008,12,07,03,35,7.60
2008,12,07,03,36,7.60
2008,12,07,03,37,7.60
2008,12,07,03,38,7.60
2008,12,07,03,39,7.60
2008,12,07,03,40,7.60
2008,12,07,03,41,7.50
2008,12,07,03,42,7.50
2008,12,07,03,43,7.40
2008,12,07,03,44,7.30
2008,12,07,03,45,7.30
2008,12,07,03,46,7.30
2008,12,07,03,47,7.20
2008,12,07,03,48,7.20
2008,12,07,03,49,7.20
2008,12,07,03,50,7.20
2008,12,07,03,51,7.20
2008,12,07,03,52,7.20
2008,12,07,03,53,7.20
2008,12,07,03,54,7.20
2008,12,07,03,55,7.20
2008,12,07,03,56,7.20
2008,12,07,03,57,7.20
2008,12,07,03,58,7.20
2008,12,07,03,59,7.20
2008,12,07,04,00,7.20
2008,12,07,04,01,7.20
2008,12,07,04,02,7.20
2008,12,07,04,03,7.20
2008,12,07,04,04,7.20
2008,12,07,04,05,7.20
2008,12,07,04,06,7.20
2008,12,07,04,07,7.20
2008,12,07,04,08,7.20
2008,12,07,04,09,7.20
2008,12,07,04,10,7.20
2008,12,07,04,11,7.20
2008,12,07,04,12,7.20
2008,12,07,04,13,7.20
2008,12,07,04,14,7.20
2008,12,07,04,15,7.20
2008,12,07,04,16,7.20
2008,12,07,04,17,7.20
2008,12,07,04,18,7.20
2008,12,07,04,19,7.20
2008,12,07,04,20,7.20
2008,12,07,04,21,7.20
2008,12,07,04,22,7.20
2008,12,07,04,23,7.20
2008,12,07,04,24,7.20
2008,12,07,04,25,7.20
2008,12,07,04,26,7.20
2008,12,07,04,27,7.20
2008,12,07,04,28,7.20
2008,12,07,04,29,7.10
2008,12,07,04,30,7.00
2008,12,07,04,31,6.90
2008,12,07,04,32,6.90
2008,12,07,04,33,6.90
2008,12,07,04,34,6.90
2008,12,07,04,35,6.90
2008,12,07,04,36,6.90
2008,12,07,04,37,6.90
2008,12,07,04,38,6.90
2008,12,07,04,39,6.90
2008,12,07,04,40,6.80
2008,12,07,04,41,6.80
2008,12,07,04,42,6.80
2008,12,07,04,43,6.80
2008,12,07,04,44,6.90
2008,12,07,04,45,6.90
2008,12,07,04,46,6.90
2008,12,07,04,47,6.90
2008,12,07,04,48,6.90
2008,12,07,04,49,6.90
2008,12,07,04,50,6.90
2008,12,07,04,51,6.90
2008,12,07,04,52,6.90
2008,12,07,04,53,6.90
2008,12,07,04,54,6.90
2008,12,07,04,55,6.90
2008,12,07,04,56,6.90
2008,12,07,04,57,6.90
2008,12,07,04,58,6.90
2008,12,07,04,59,6.90
2008,12,07,05,00,6.80
2008,12,07,05,01,6.80
2008,12,07,05,02,6.80
2008,12,07,05,03,6.80
2008,12,07,05,04,6.80
2008,12,07,05,05,6.80
2008,12,07,05,06,6.70
2008,12,07,05,07,6.70
2008,12,07,05,08,6.70
2008,12,07,05,09,6.80
2008,12,07,05,10,6.80
2008,12,07,05,11,6.80
2008,12,07,05,12,6.80
2008,12,07,05,13,6.80
2008,12,07,05,14,6.70
2008,12,07,05,15,6.70
2008,12,07,05,16,6.60
2008,12,07,05,17,6.60
2008,12,07,05,18,6.60
2008,12,07,05,19,6.50
2008,12,07,05,20,6.50
2008,12,07,05,21,6.40
2008,12,07,05,22,6.40
2008,12,07,05,23,6.40
2008,12,07,05,24,6.40
2008,12,07,05,25,6.40
2008,12,07,05,26,6.40
2008,12,07,05,27,6.40
2008,12,07,05,28,6.40
2008,12,07,05,29,6.40
2008,12,07,05,30,6.40
2008,12,07,05,31,6.40
2008,12,07,05,32,6.40
2008,12,07,05,33,6.40
2008,12,07,05,34,6.40
2008,12,07,05,35,6.30
2008,12,07,05,36,6.30
2008,12,07,05,37,6.30
2008,12,07,05,38,6.30
2008,12,07,05,39,6.30
2008,12,07,05,40,6.40
2008,12,07,05,41,6.40
2008,12,07,05,42,6.40
2008,12,07,05,43,6.40
2008,12,07,05,44,6.40
2008,12,07,05,45,6.40
2008,12,07,05,46,6.40
2008,12,07,05,47,6.40
2008,12,07,05,48,6.40
2008,12,07,05,49,6.30
2008,12,07,05,50,6.30
2008,12,07,05,51,6.30
2008,12,07,05,52,6.20
2008,12,07,05,53,6.20
2008,12,07,05,54,6.20
2008,12,07,05,55,6.20
2008,12,07,05,56,6.20
2008,12,07,05,57,6.20
2008,12,07,05,58,6.20
2008,12,07,05,59,6.20
2008,12,07,06,00,6.20
2008,12,07,06,01,6.20
2008,12,07,06,02,6.20
2008,12,07,06,03,6.20
2008,12,07,06,04,6.20
2008,12,07,06,05,6.20
2008,12,07,06,06,6.20
2008,12,07,06,07,6.20
2008,12,07,06,08,6.20
2008,12,07,06,09,6.20
2008,12,07,06,10,6.20
2008,12,07,06,11,6.20
2008,12,07,06,12,6.30
2008,12,07,06,13,6.30
2008,12,07,06,14,6.30
2008,12,07,06,15,6.40
2008,12,07,06,16,6.40
2008,12,07,06,17,6.40
2008,12,07,06,18,6.40
2008,12,07,06,19,6.40
2008,12,07,06,20,6.30
2008,12,07,06,21,6.30
2008,12,07,06,22,6.30
2008,12,07,06,23,6.30
2008,12,07,06,24,6.30
2008,12,07,06,25,6.30
2008,12,07,06,26,6.30
2008,12,07,06,27,6.40
2008,12,07,06,28,6.40
2008,12,07,06,29,6.50
2008,12,07,06,30,6.60
2008,12,07,06,31,6.70
2008,12,07,06,32,6.80
2008,12,07,06,33,6.80
2008,12,07,06,34,6.80
2008,12,07,06,35,6.80
2008,12,07,06,36,6.80
2008,12,07,06,37,6.90
2008,12,07,06,38,6.90
2008,12,07,06,39,6.90
2008,12,07,06,40,6.90
2008,12,07,06,41,6.90
2008,12,07,06,42,6.90
2008,12,07,06,43,6.90
2008,12,07,06,44,6.90
2008,12,07,06,45,6.90
2008,12,07,06,46,6.90
2008,12,07,06,47,6.90
2008,12,07,06,48,6.90
2008,12,07,06,49,6.90
2008,12,07,06,50,6.90
2008,12,07,06,51,6.90
2008,12,07,06,52,6.90
2008,12,07,06,53,6.90
2008,12,07,06,54,6.90
2008,12,07,06,55,6.90
2008,12,07,06,56,6.90
2008,12,07,06,57,6.90
2008,12,07,06,58,6.90
2008,12,07,06,59,6.90
2008,12,07,07,00,6.90
2008,12,07,07,01,6.90
2008,12,07,07,02,6.80
2008,12,07,07,03,6.80
2008,12,07,07,04,6.80
2008,12,07,07,05,6.80
2008,12,07,07,06,6.80
2008,12,07,07,07,6.80
2008,12,07,07,08,6.80
2008,12,07,07,09,6.80
2008,12,07,07,10,6.80
2008,12,07,07,11,6.80
2008,12,07,07,12,6.80
2008,12,07,07,13,6.80
2008,12,07,07,14,6.90
2008,12,07,07,15,6.90
2008,12,07,07,16,6.90
2008,12,07,07,17,6.90
2008,12,07,07,18,6.90
2008,12,07,07,19,6.90
2008,12,07,07,20,6.90
2008,12,07,07,21,6.80
2008,12,07,07,22,6.70
2008,12,07,07,23,6.60
2008,12,07,07,24,6.50
2008,12,07,07,25,6.40
2008,12,07,07,26,6.40
2008,12,07,07,27,6.40
2008,12,07,07,28,6.30
2008,12,07,07,29,6.30
2008,12,07,07,30,6.30
2008,12,07,07,31,6.30
2008,12,07,07,32,6.30
2008,12,07,07,33,6.20
2008,12,07,07,34,6.20
2008,12,07,07,35,6.20
2008,12,07,07,36,6.20
2008,12,07,07,37,6.20
2008,12,07,07,38,6.20
2008,12,07,07,39,6.10
2008,12,07,07,40,6.10
2008,12,07,07,41,6.00
2008,12,07,07,42,6.00
2008,12,07,07,43,5.90
2008,12,07,07,44,5.90
2008,12,07,07,45,5.90
2008,12,07,07,46,5.90
2008,12,07,07,47,6.00
2008,12,07,07,48,6.00
2008,12,07,07,49,6.00
2008,12,07,07,50,6.00
2008,12,07,07,51,5.90
2008,12,07,07,52,5.90
2008,12,07,07,53,5.90
2008,12,07,07,54,5.90
2008,12,07,07,55,5.90
2008,12,07,07,56,5.90
2008,12,07,07,57,5.80
2008,12,07,07,58,5.80
2008,12,07,07,59,5.80
2008,12,07,08,00,5.80
2008,12,07,08,01,5.80
2008,12,07,08,02,5.70
2008,12,07,08,03,5.70
2008,12,07,08,04,5.70
2008,12,07,08,05,5.80
2008,12,07,08,06,5.80
2008,12,07,08,07,5.80
2008,12,07,08,08,5.90
2008,12,07,08,09,5.90
2008,12,07,08,10,5.90
2008,12,07,08,11,5.90
2008,12,07,08,12,5.90
2008,12,07,08,13,5.90
2008,12,07,08,14,5.80
2008,12,07,08,15,5.80
2008,12,07,08,16,5.70
2008,12,07,08,17,5.60
2008,12,07,08,18,5.60
2008,12,07,08,19,5.60
2008,12,07,08,20,5.60
2008,12,07,08,21,5.60
2008,12,07,08,22,5.60
2008,12,07,08,23,5.60
2008,12,07,08,24,5.60
2008,12,07,08,25,5.60
2008,12,07,08,26,5.60
2008,12,07,08,27,5.60
2008,12,07,08,28,5.50
2008,12,07,08,29,5.50
2008,12,07,08,30,5.50
2008,12,07,08,31,5.50
2008,12,07,08,32,5.40
2008,12,07,08,33,5.40
2008,12,07,08,34,5.30
2008,12,07,08,35,5.40
2008,12,07,08,36,5.40
2008,12,07,08,37,5.40
2008,12,07,08,38,5.40
2008,12,07,08,39,5.40
2008,12,07,08,40,5.40
2008,12,07,08,41,5.40
2008,12,07,08,42,5.30
2008,12,07,08,43,5.30
2008,12,07,08,44,5.30
2008,12,07,08,45,5.30
2008,12,07,08,46,5.20
2008,12,07,08,47,5.20
2008,12,07,08,48,5.20
2008,12,07,08,49,5.20
2008,12,07,08,50,5.20
2008,12,07,08,51,5.20
2008,12,07,08,52,5.20
2008,12,07,08,53,5.10
2008,12,07,08,54,5.10
2008,12,07,08,55,5.00
2008,12,07,08,56,5.00
2008,12,07,08,57,4.90
2008,12,07,08,58,4.90
2008,12,07,08,59,4.80
2008,12,07,09,00,4.80
2008,12,07,09,01,4.80
2008,12,07,09,02,4.90
2008,12,07,09,03,4.90
2008,12,07,09,04,5.00
2008,12,07,09,05,5.00
2008,12,07,09,06,5.10
2008,12,07,09,07,5.10
2008,12,07,09,08,5.10
2008,12,07,09,09,5.00
2008,12,07,09,10,5.00
2008,12,07,09,11,5.10
2008,12,07,09,12,5.10
2008,12,07,09,13,5.10
2008,12,07,09,14,5.10
2008,12,07,09,15,5.10
2008,12,07,09,16,5.10
2008,12,07,09,17,5.10
2008,12,07,09,18,5.10
2008,12,07,09,19,5.10
2008,12,07,09,20,5.00
2008,12,07,09,21,5.00
2008,12,07,09,22,4.90
2008,12,07,09,23,4.90
2008,12,07,09,24,5.00
2008,12,07,09,25,5.00
2008,12,07,09,26,5.10
2008,12,07,09,27,5.10
2008,12,07,09,28,5.10
2008,12,07,09,29,5.10
2008,12,07,09,30,5.10
2008,12,07,09,31,5.10
2008,12,07,09,32,5.10
2008,12,07,09,33,5.10
2008,12,07,09,34,5.10
2008,12,07,09,35,5.20
2008,12,07,09,36,5.20
2008,12,07,09,37,5.20
2008,12,07,09,38,5.30
2008,12,07,09,39,5.30
2008,12,07,09,40,5.30
2008,12,07,09,41,5.30
2008,12,07,09,42,5.40
2008,12,07,09,43,5.40
2008,12,07,09,44,5.50
2008,12,07,09,45,5.50
2008,12,07,09,46,5.60
2008,12,07,09,47,5.60
2008,12,07,09,48,5.70
2008,12,07,09,49,5.70
2008,12,07,09,50,5.70
2008,12,07,09,51,5.70
2008,12,07,09,52,5.70
2008,12,07,09,53,5.70
2008,12,07,09,54,5.80
2008,12,07,09,55,5.80
2008,12,07,09,56,5.80
2008,12,07,09,57,5.80
2008,12,07,09,58,5.80
2008,12,07,09,59,5.80
2008,12,07,10,00,5.90
2008,12,07,10,01,5.90
2008,12,07,10,02,5.90
2008,12,07,10,03,6.00
2008,12,07,10,04,6.00
2008,12,07,10,05,6.10
2008,12,07,10,06,6.10
2008,12,07,10,07,6.20
2008,12,07,10,08,6.20
2008,12,07,10,09,6.20
2008,12,07,10,10,6.30
2008,12,07,10,11,6.40
2008,12,07,10,12,6.50
2008,12,07,10,13,6.50
2008,12,07,10,14,6.60
2008,12,07,10,15,6.70
2008,12,07,10,16,6.80
2008,12,07,10,17,6.90
2008,12,07,10,18,7.00
2008,12,07,10,19,7.00
2008,12,07,10,20,7.10
2008,12,07,10,21,7.20
2008,12,07,10,22,7.20
2008,12,07,10,23,7.30
2008,12,07,10,24,7.40
2008,12,07,10,25,7.50
2008,12,07,10,26,7.50
2008,12,07,10,27,7.60
2008,12,07,10,28,7.60
2008,12,07,10,29,7.70
2008,12,07,10,30,7.70
2008,12,07,10,31,7.70
2008,12,07,10,32,7.70
2008,12,07,10,33,7.80
2008,12,07,10,34,7.80
2008,12,07,10,35,7.80
2008,12,07,10,36,7.90
2008,12,07,10,37,7.90
2008,12,07,10,38,7.90
2008,12,07,10,39,7.90
2008,12,07,10,40,7.90
2008,12,07,10,41,7.90
2008,12,07,10,42,8.00
2008,12,07,10,43,8.00
2008,12,07,10,44,8.00
2008,12,07,10,45,8.00
2008,12,07,10,46,8.00
2008,12,07,10,47,8.00
2008,12,07,10,48,8.00
2008,12,07,10,49,8.00
2008,12,07,10,50,8.00
2008,12,07,10,51,8.00
2008,12,07,10,52,8.00
2008,12,07,10,53,8.10
2008,12,07,10,54,8.10
2008,12,07,10,55,8.10
2008,12,07,10,56,8.10
2008,12,07,10,57,8.20
2008,12,07,10,58,8.20
2008,12,07,10,59,8.20
2008,12,07,11,00,8.30
2008,12,07,11,01,8.30
2008,12,07,11,02,8.30
2008,12,07,11,03,8.40
2008,12,07,11,04,8.40
2008,12,07,11,05,8.50
2008,12,07,11,06,8.50
2008,12,07,11,07,8.60
2008,12,07,11,08,8.60
2008,12,07,11,09,8.60
2008,12,07,11,10,8.60
2008,12,07,11,11,8.70
2008,12,07,11,12,8.70
2008,12,07,11,13,8.70
2008,12,07,11,14,8.80
2008,12,07,11,15,8.80
2008,12,07,11,16,8.90
2008,12,07,11,17,8.90
2008,12,07,11,18,9.00
2008,12,07,11,19,9.00
2008,12,07,11,20,9.10
2008,12,07,11,21,9.10
2008,12,07,11,22,9.10
2008,12,07,11,23,9.10
2008,12,07,11,24,9.10
2008,12,07,11,25,9.10
2008,12,07,11,26,9.10
2008,12,07,11,27,9.10
2008,12,07,11,28,9.10
2008,12,07,11,29,9.10
2008,12,07,11,30,9.10
2008,12,07,11,31,9.00
2008,12,07,11,32,9.00
2008,12,07,11,33,8.90
2008,12,07,11,34,8.90
2008,12,07,11,35,8.90
2008,12,07,11,36,8.80
2008,12,07,11,37,8.80
2008,12,07,11,38,8.80
2008,12,07,11,39,8.80
2008,12,07,11,40,8.80
2008,12,07,11,41,8.90
2008,12,07,11,42,8.90
2008,12,07,11,43,9.00
2008,12,07,11,44,9.10
2008,12,07,11,45,9.20
2008,12,07,11,46,9.30
2008,12,07,11,47,9.30
2008,12,07,11,48,9.40
2008,12,07,11,49,9.50
2008,12,07,11,50,9.60
2008,12,07,11,51,9.70
2008,12,07,11,52,9.70
2008,12,07,11,53,9.70
2008,12,07,11,54,9.80
2008,12,07,11,55,9.80
2008,12,07,11,56,9.90
2008,12,07,11,57,9.90
2008,12,07,11,58,9.90
2008,12,07,11,59,9.90
2008,12,07,12,00,9.90
2008,12,07,12,01,10.00
2008,12,07,12,02,9.90
2008,12,07,12,03,9.90
2008,12,07,12,04,9.80
2008,12,07,12,05,9.80
2008,12,07,12,06,9.80
2008,12,07,12,07,9.70
2008,12,07,12,08,9.70
2008,12,07,12,09,9.70
2008,12,07,12,10,9.60
2008,12,07,12,11,9.60
2008,12,07,12,12,9.60
2008,12,07,12,13,9.60
2008,12,07,12,14,9.60
2008,12,07,12,15,9.60
2008,12,07,12,16,9.60
2008,12,07,12,17,9.60
2008,12,07,12,18,9.60
2008,12,07,12,19,9.60
2008,12,07,12,20,9.60
2008,12,07,12,21,9.60
2008,12,07,12,22,9.70
2008,12,07,12,23,9.70
2008,12,07,12,24,9.70
2008,12,07,12,25,9.60
2008,12,07,12,26,9.60
2008,12,07,12,27,9.50
2008,12,07,12,28,9.40
2008,12,07,12,29,9.40
2008,12,07,12,30,9.30
2008,12,07,12,31,9.30
2008,12,07,12,32,9.20
2008,12,07,12,33,9.20
2008,12,07,12,34,9.10
2008,12,07,12,35,9.10
2008,12,07,12,36,9.10
2008,12,07,12,37,9.00
2008,12,07,12,38,9.00
2008,12,07,12,39,9.00
2008,12,07,12,40,9.00
2008,12,07,12,41,9.00
2008,12,07,12,42,9.00
2008,12,07,12,43,9.00
2008,12,07,12,44,9.00
2008,12,07,12,45,9.00
2008,12,07,12,46,9.00
2008,12,07,12,47,9.10
2008,12,07,12,48,9.10
2008,12,07,12,49,9.20
2008,12,07,12,50,9.20
2008,12,07,12,51,9.30
2008,12,07,12,52,9.30
2008,12,07,12,53,9.30
2008,12,07,12,54,9.30
2008,12,07,12,55,9.30
2008,12,07,12,56,9.30
2008,12,07,12,57,9.30
2008,12,07,12,58,9.30
2008,12,07,12,59,9.30
2008,12,07,13,00,9.40
2008,12,07,13,01,9.40
2008,12,07,13,02,9.50
2008,12,07,13,03,9.60
2008,12,07,13,04,9.70
2008,12,07,13,05,9.80
2008,12,07,13,06,9.80
2008,12,07,13,07,9.80
2008,12,07,13,08,9.80
2008,12,07,13,09,9.90
2008,12,07,13,10,9.80
2008,12,07,13,11,9.80
2008,12,07,13,12,9.80
2008,12,07,13,13,9.80
2008,12,07,13,14,9.80
2008,12,07,13,15,9.80
2008,12,07,13,16,9.80
2008,12,07,13,17,9.80
2008,12,07,13,18,9.80
2008,12,07,13,19,9.80
2008,12,07,13,20,9.80
2008,12,07,13,21,9.80
2008,12,07,13,22,9.80
2008,12,07,13,23,9.80
2008,12,07,13,24,9.80
2008,12,07,13,25,9.90
2008,12,07,13,26,9.90
2008,12,07,13,27,10.00
2008,12,07,13,28,10.00
2008,12,07,13,29,10.10
2008,12,07,13,30,10.00
2008,12,07,13,31,9.90
2008,12,07,13,32,9.80
2008,12,07,13,33,9.80
2008,12,07,13,34,9.80
2008,12,07,13,35,9.80
2008,12,07,13,36,9.80
2008,12,07,13,37,9.80
2008,12,07,13,38,9.70
2008,12,07,13,39,9.70
2008,12,07,13,40,9.60
2008,12,07,13,41,9.60
2008,12,07,13,42,9.60
2008,12,07,13,43,9.60
2008,12,07,13,44,9.60
2008,12,07,13,45,9.60
2008,12,07,13,46,9.60
2008,12,07,13,47,9.60
2008,12,07,13,48,9.60
2008,12,07,13,49,9.60
2008,12,07,13,50,9.60
2008,12,07,13,51,9.60
2008,12,07,13,52,9.60
2008,12,07,13,53,9.60
2008,12,07,13,54,9.60
2008,12,07,13,55,9.60
2008,12,07,13,56,9.70
2008,12,07,13,57,9.70
2008,12,07,13,58,9.80
2008,12,07,13,59,9.80
2008,12,07,14,00,9.90
2008,12,07,14,01,9.90
2008,12,07,14,02,9.90
2008,12,07,14,03,10.00
2008,12,07,14,04,10.00
2008,12,07,14,05,10.10
2008,12,07,14,06,10.10
2008,12,07,14,07,10.10
2008,12,07,14,08,10.10
2008,12,07,14,09,10.00
2008,12,07,14,10,9.90
2008,12,07,14,11,9.90
2008,12,07,14,12,9.80
2008,12,07,14,13,9.80
2008,12,07,14,14,9.90
2008,12,07,14,15,9.90
2008,12,07,14,16,9.90
2008,12,07,14,17,9.90
2008,12,07,14,18,9.90
2008,12,07,14,19,9.90
2008,12,07,14,20,9.90
2008,12,07,14,21,9.90
2008,12,07,14,22,9.90
2008,12,07,14,23,9.90
2008,12,07,14,24,9.90
2008,12,07,14,25,9.90
2008,12,07,14,26,9.90
2008,12,07,14,27,9.80
2008,12,07,14,28,9.80
2008,12,07,14,29,9.70
2008,12,07,14,30,9.70
2008,12,07,14,31,9.70
2008,12,07,14,32,9.60
2008,12,07,14,33,9.60
2008,12,07,14,34,9.60
2008,12,07,14,35,9.60
2008,12,07,14,36,9.60
2008,12,07,14,37,9.60
2008,12,07,14,38,9.60
2008,12,07,14,39,9.60
2008,12,07,14,40,9.50
2008,12,07,14,41,9.50
2008,12,07,14,42,9.60
2008,12,07,14,43,9.60
2008,12,07,14,44,9.60
2008,12,07,14,45,9.60
2008,12,07,14,46,9.70
2008,12,07,14,47,9.80
2008,12,07,14,48,9.80
2008,12,07,14,49,9.90
2008,12,07,14,50,9.90
2008,12,07,14,51,9.90
2008,12,07,14,52,9.90
2008,12,07,14,53,9.80
2008,12,07,14,54,9.80
2008,12,07,14,55,9.80
2008,12,07,14,56,9.70
2008,12,07,14,57,9.60
2008,12,07,14,58,9.50
2008,12,07,14,59,9.40
2008,12,07,15,00,9.40
2008,12,07,15,01,9.30
2008,12,07,15,02,9.20
2008,12,07,15,03,9.20
2008,12,07,15,04,9.10
2008,12,07,15,05,9.10
2008,12,07,15,06,9.10
2008,12,07,15,07,9.00
2008,12,07,15,08,9.00
2008,12,07,15,09,9.00
2008,12,07,15,10,8.90
2008,12,07,15,11,8.90
2008,12,07,15,12,8.80
2008,12,07,15,13,8.80
2008,12,07,15,14,8.70
2008,12,07,15,15,8.60
2008,12,07,15,16,8.60
2008,12,07,15,17,8.60
2008,12,07,15,18,8.50
2008,12,07,15,19,8.40
2008,12,07,15,20,8.40
2008,12,07,15,21,8.40
2008,12,07,15,22,8.30
2008,12,07,15,23,8.30
2008,12,07,15,24,8.30
2008,12,07,15,25,8.30
2008,12,07,15,26,8.20
2008,12,07,15,27,8.20
2008,12,07,15,28,8.20
2008,12,07,15,29,8.10
2008,12,07,15,30,8.10
2008,12,07,15,31,8.10
2008,12,07,15,32,8.00
2008,12,07,15,33,8.00
2008,12,07,15,34,7.90
2008,12,07,15,35,7.90
2008,12,07,15,36,7.90
2008,12,07,15,37,7.80
2008,12,07,15,38,7.80
2008,12,07,15,39,7.80
2008,12,07,15,40,7.70
2008,12,07,15,41,7.70
2008,12,07,15,42,7.70
2008,12,07,15,43,7.70
2008,12,07,15,44,7.70
2008,12,07,15,45,7.60
2008,12,07,15,46,7.60
2008,12,07,15,47,7.60
2008,12,07,15,48,7.50
2008,12,07,15,49,7.50
2008,12,07,15,50,7.40
2008,12,07,15,51,7.40
2008,12,07,15,52,7.30
2008,12,07,15,53,7.30
2008,12,07,15,54,7.30
2008,12,07,15,55,7.30
2008,12,07,15,56,7.20
2008,12,07,15,57,7.20
2008,12,07,15,58,7.20
2008,12,07,15,59,7.20
2008,12,07,16,00,7.20
2008,12,07,16,01,7.20
2008,12,07,16,02,7.10
2008,12,07,16,03,7.10
2008,12,07,16,04,7.10
2008,12,07,16,05,7.10
2008,12,07,16,06,7.10
2008,12,07,16,07,7.10
2008,12,07,16,08,7.00
2008,12,07,16,09,7.00
2008,12,07,16,10,7.00
2008,12,07,16,11,7.00
2008,12,07,16,12,6.90
2008,12,07,16,13,6.90
2008,12,07,16,14,6.90
2008,12,07,16,15,6.90
2008,12,07,16,16,6.90
2008,12,07,16,17,6.80
2008,12,07,16,18,6.80
2008,12,07,16,19,6.80
2008,12,07,16,20,6.70
2008,12,07,16,21,6.70
2008,12,07,16,22,6.60
2008,12,07,16,23,6.60
2008,12,07,16,24,6.60
2008,12,07,16,25,6.50
2008,12,07,16,26,6.50
2008,12,07,16,27,6.50
2008,12,07,16,28,6.50
2008,12,07,16,29,6.50
2008,12,07,16,30,6.50
2008,12,07,16,31,6.50
2008,12,07,16,32,6.30
2008,12,07,16,33,6.30
2008,12,07,16,34,6.30
2008,12,07,16,35,6.30
2008,12,07,16,36,6.20
2008,12,07,16,37,6.20
2008,12,07,16,38,6.20
2008,12,07,16,39,6.20
2008,12,07,16,40,6.10
2008,12,07,16,41,6.10
2008,12,07,16,42,6.10
2008,12,07,16,43,6.00
2008,12,07,16,44,6.00
2008,12,07,16,45,6.00
2008,12,07,16,46,5.90
2008,12,07,16,47,5.90
2008,12,07,16,48,5.90
2008,12,07,16,49,5.90
2008,12,07,16,50,5.90
2008,12,07,16,51,5.80
2008,12,07,16,52,5.80
2008,12,07,16,53,5.80
2008,12,07,16,54,5.80
2008,12,07,16,55,5.80
2008,12,07,16,56,5.80
2008,12,07,16,57,5.70
2008,12,07,16,58,5.70
2008,12,07,16,59,5.70
2008,12,07,17,00,5.60
2008,12,07,17,01,5.60
2008,12,07,17,02,5.60
2008,12,07,17,03,5.60
2008,12,07,17,04,5.50
2008,12,07,17,05,5.50
2008,12,07,17,06,5.50
2008,12,07,17,07,5.40
2008,12,07,17,08,5.40
2008,12,07,17,09,5.40
2008,12,07,17,10,5.40
2008,12,07,17,11,5.40
2008,12,07,17,12,5.30
2008,12,07,17,13,5.30
2008,12,07,17,14,5.30
2008,12,07,17,15,5.30
2008,12,07,17,16,5.20
2008,12,07,17,17,5.20
2008,12,07,17,18,5.10
2008,12,07,17,19,5.10
2008,12,07,17,20,5.10
2008,12,07,17,21,5.10
2008,12,07,17,22,5.10
2008,12,07,17,23,5.00
2008,12,07,17,24,5.00
2008,12,07,17,25,5.00
2008,12,07,17,26,5.00
2008,12,07,17,27,5.00
2008,12,07,17,28,5.00
2008,12,07,17,29,4.90
2008,12,07,17,30,4.90
2008,12,07,17,31,4.90
2008,12,07,17,32,4.90
2008,12,07,17,33,4.90
2008,12,07,17,34,4.80
2008,12,07,17,35,4.80
2008,12,07,17,36,4.80
2008,12,07,17,37,4.80
2008,12,07,17,38,4.70
2008,12,07,17,39,4.70
2008,12,07,17,40,4.70
2008,12,07,17,41,4.70
2008,12,07,17,42,4.70
2008,12,07,17,43,4.60
2008,12,07,17,44,4.60
2008,12,07,17,45,4.60
2008,12,07,17,46,4.60
2008,12,07,17,47,4.60
2008,12,07,17,48,4.60
2008,12,07,17,49,4.60
2008,12,07,17,50,4.50
2008,12,07,17,51,4.50
2008,12,07,17,52,4.50
2008,12,07,17,53,4.40
2008,12,07,17,54,4.40
2008,12,07,17,55,4.40
2008,12,07,17,56,4.40
2008,12,07,17,57,4.30
2008,12,07,17,58,4.30
2008,12,07,17,59,4.30
2008,12,07,18,00,4.30
2008,12,07,18,01,4.30
2008,12,07,18,02,4.30
2008,12,07,18,03,4.30
2008,12,07,18,04,4.30
2008,12,07,18,05,4.20
2008,12,07,18,06,4.20